COSMOS 926 DEB

Satellite information

Favourite Embed

Satellite Type and Status

DEBRISIN ORBIT

Key statistics

Satellite COSMOS 926 DEB at a glance.

Uptime

17691

Days in orbit

Revolutions

≈ 13.7

Per day

Orbit

LEO

Low Earth Orbit

Inclination

82.9

Latest

Satellite identification and parameters

Extended collection of information and parameters for COSMOS 926 DEB.

Object identification

Identified? True

Debris? True

Object name: COSMOS 926 DEB

International designator: 1977-062D

Object number (NORAD): 13491

Object ID (CCSDS): 13491

Country: COMMONWEALTH OF INDEPENDENT STATES (CIS)

Current information (Y/N): Y

RCS size: SMALL

Orbital parameters

Period: 104.757 minutes

Inclination: 82.9288 deg

SMA: 7361.207 km

Apoapsis: 996.619 km

Periapsis: 969.526 km

RAAN: 128.1749 deg

Eccentricy: 0.00184031

Argument of periapsis: 215.0204 deg

Mean anomaly: 200.182 deg

Mean motion: 13.7460898 rev/day

Mean motion (dot): 0.00000337 rev/day2

B* drag term: 0.00033975354 1/REarth

Two-line elements (TLE)

Creation date: Dec. 14, 2025, 3:07 a.m.

Reference frame: TEME

Reference center: EARTH

Epoch: Dec. 13, 2025, 9:56 a.m. UTC

TLE line 0: 0 COSMOS 926 DEB

TLE line 1: 1 13491U 77062D 25347.41443484 .00000337 00000-0 33975-3 0 9996

TLE line 2: 2 13491 82.9288 128.1749 0018403 215.0204 200.1820 13.74608980227346

Live tracking on map

Real-time ground track for satellite COSMOS 926 DEB.

In-orbit conjunctions

A list of the most updated potential collisions computed for object COSMOS 926 DEB.

Target Orbit TCA Probability of collision Miss distance Type
COSMOS 1225 LEO 2024-10-06 14:51:58 0.0004640455 595.0 (m) PAYLOAD

Associated space launch

Civilian navigation satellite equivalent to the purely military Parus

COSMOS 926 DEB was lifted into orbit during the mission ‘Kosmos-3M | Tsikada 2’, on board a Kosmos-3M space rocket.

The launch took place on July 8, 1977, 5:30 p.m. from 132/1 (132L).

For more information about the launch, click the button.

Launch to space Kosmos-3M | Tsikada 2
Kosmos-3M | Tsikada 2

Agency: N/A

Status: Launch Successful

Launch date: July 8, 1977, 5:30 p.m. UTC

Rocket: Kosmos-3M

Launch pad: 132/1 (132L)

Location: Plesetsk Cosmodrome, Russian Federation

...

Latest news about this satellite

There are no fresh news available about this satellite. Check back as we update our databases every day.


Newsletter sign-up

Weekly statistics, charts and insights to help you stay on top of the space industry.